Content
SEND FEEDBACK

Daily
Averages
Monthly
Summary
United States of America

BOWMAN, GEORGIA


Home > North America > United States > Georgia
Elevation: 78 feet     Latitude: 34 12N     Longitude: 083 02W

WEATHER
 
SELECT A DAY
Number of Records: 217,507;   Date Range: 1/1/95 - 9/19/14
 
SHARE

PRINT THIS DATA

[ ← Previous Day ]
WEATHER ALMANAC - JANUARY 31, 2013
[ Next Day → ]
[ °C ]   °F
Weather ElementAverageHighLow
Temperature41.1 °F48 °F (2:51 pm)35.1 °F (7:51 am)
Dewpoint23.8 °F33.1 °F (1:51 am)19.9 °F (5:51 pm)
Humidity51.4 %70 % (1:51 am)34 % (2:51 pm)
Barometer30.05 in30.17 in (11:51 pm)29.82 in (1:51 am)
Wind Speed12.1 mph20.7 mph (3:51 am)
Wind Gust34.5 mph (3:51 am)
Weather ElementAverage
Visibility10 mi
Wind DirectionW (272.6 °)

Weather ElementTotal
Precipitation---
Heating Degree Days23.5 (Base 65)
Averaged from 23 records on January 31, 2013
WEATHER CONDITIONS BREAKOUT
WIND DIRECTION BREAKOUT
WEATHER BY HOUR - JANUARY 31, 2013
[ °C ]   °F
Local TimeTemperatureDewpointHumidityBarometerVisibilityWind DirectionWind SpeedGust SpeedPrecipitationEventsConditions
1:51 AM42.1 °F33.1 °F70 %29.82 in10.0 miWest (270°)15.0 mph28.8 mph0.00 inOvercast
2:51 AM39.9 °F30.0 °F68 %29.86 in10.0 miWNW (290°)17.3 mph29.9 mphPartly Cloudy
3:51 AM37.0 °F25.0 °F62 %29.90 in10.0 miWest (280°)20.7 mph34.5 mphClear
4:51 AM37.0 °F24.1 °F59 %29.91 in10.0 miWNW (300°)12.7 mph25.3 mphClear
5:51 AM36.0 °F24.1 °F62 %29.95 in10.0 miWNW (290°)11.5 mph19.6 mphClear
6:51 AM36.0 °F24.1 °F62 %29.99 in10.0 miWest (280°)12.7 mph20.7 mphClear
7:51 AM35.1 °F23.0 °F61 %30.01 in10.0 miWest (280°)9.2 mphClear
8:51 AM37.9 °F24.1 °F57 %30.03 in10.0 miWest (270°)10.4 mphClear
9:51 AM39.9 °F26.1 °F58 %30.06 in10.0 miWNW (290°)19.6 mph26.5 mphClear
10:51 AM42.1 °F24.1 °F49 %30.07 in10.0 miWest (270°)15.0 mph20.7 mphClear
11:51 AM45.0 °F24.1 °F44 %30.08 in10.0 miWest (280°)15.0 mph25.3 mphClear
12:51 PM46.9 °F21.0 °F36 %30.07 in10.0 miWest (270°)18.4 mph29.9 mphClear
1:51 PM46.9 °F21.0 °F36 %30.08 in10.0 miWest (280°)15.0 mph29.9 mphClear
2:51 PM48.0 °F21.0 °F34 %30.08 in10.0 miNW (310°)18.4 mph26.5 mphClear
3:51 PM48.0 °F21.0 °F34 %30.09 in10.0 miWNW (300°)17.3 mph26.5 mphClear
4:51 PM48.0 °F21.0 °F34 %30.09 in10.0 miWest (280°)13.8 mph21.9 mphClear
5:51 PM45.0 °F19.9 °F37 %30.09 in10.0 miWNW (290°)8.1 mphClear
6:51 PM42.1 °F21.9 °F45 %30.12 in10.0 miWSW (240°)4.6 mphClear
7:51 PM41.0 °F23.0 °F49 %30.13 in10.0 miWSW (240°)4.6 mphClear
8:51 PM39.9 °F24.1 °F53 %30.14 in10.0 miWSW (250°)4.6 mphClear
9:51 PM37.9 °F23.0 °F55 %30.16 in10.0 miWSW (250°)3.5 mphClear
10:51 PM37.0 °F24.1 °F59 %30.16 in10.0 miSW (220°)5.8 mphClear
11:51 PM37.0 °F24.1 °F59 %30.17 in10.0 miWSW (240°)5.8 mphClear
Hourly data recorded from KAHN, located miles away from Bowman, Georgia







STORIES FROM OUR PARTNERS